Location: Lane
(33.5226°N, 79.8788°W)
Time: 03:41:37
(UTC+00:00)

Explorer 7 - Pass Details

Date: 11 October 2022
Orbit: 481 x 665 km, 50.3° (Epoch: 01 December)

Event Time Altitude Azimuth Distance (km) Brightness Sun altitude
Rises 11:31:21 0° 216° (SW) 2,879 10.2 1.3°
Reaches altitude 10° 11:33:38 10° 212° (SSW) 2,001 9.5 1.7°
Maximum altitude 11:38:10 56° 134° (SE) 771 8.1 2.7°
Drops below altitude 10° 11:42:52 10° 57° (ENE) 2,079 10.6 3.6°
Sets 11:45:17 0° 53° (NE) 3,001 11.3 4.1°
